TimeCST,TemperatureF,Dew PointF,Humidity,Sea Level PressureIn,VisibilityMPH,Wind Direction,Wind SpeedMPH,Gust SpeedMPH,PrecipitationIn,Events,Conditions,WindDirDegrees,DateUTC
12:54 AM,21.9,15.1,75,30.09,10.0,WNW,10.4,-,N/A,,Overcast,300,2012-12-22 06:54:00
1:12 AM,21.2,15.8,80,30.03,10.0,WNW,8.1,-,N/A,,Scattered Clouds,300,2012-12-22 07:12:00
1:32 AM,21.2,15.8,80,30.03,10.0,WNW,8.1,-,N/A,,Mostly Cloudy,300,2012-12-22 07:32:00
1:51 AM,19.4,14.0,80,30.03,10.0,NW,6.9,-,N/A,,Scattered Clouds,310,2012-12-22 07:51:00
1:54 AM,19.0,14.0,81,30.09,10.0,WNW,8.1,-,N/A,,Partly Cloudy,300,2012-12-22 07:54:00
2:52 AM,21.2,15.8,80,30.05,10.0,WNW,10.4,-,N/A,,Mostly Cloudy,300,2012-12-22 08:52:00
2:54 AM,21.0,15.1,78,30.12,10.0,WNW,11.5,-,N/A,,Mostly Cloudy,300,2012-12-22 08:54:00
3:54 AM,21.0,15.1,78,30.12,10.0,NW,12.7,-,N/A,,Overcast,310,2012-12-22 09:54:00
4:54 AM,21.0,15.1,78,30.11,10.0,NW,15.0,-,N/A,,Mostly Cloudy,310,2012-12-22 10:54:00
5:05 AM,19.4,15.8,86,30.04,10.0,NW,10.4,-,N/A,,Scattered Clouds,310,2012-12-22 11:05:00
5:54 AM,19.9,15.1,81,30.11,10.0,WNW,6.9,-,N/A,,Mostly Cloudy,300,2012-12-22 11:54:00
6:54 AM,19.0,14.0,81,30.11,10.0,WNW,3.5,-,N/A,,Scattered Clouds,300,2012-12-22 12:54:00
7:54 AM,17.1,12.9,84,30.10,10.0,West,5.8,-,N/A,,Clear,280,2012-12-22 13:54:00
8:54 AM,17.1,12.9,84,30.09,10.0,WNW,6.9,-,N/A,,Mostly Cloudy,290,2012-12-22 14:54:00
9:54 AM,18.0,14.0,84,30.09,10.0,NW,8.1,-,N/A,,Mostly Cloudy,310,2012-12-22 15:54:00
10:54 AM,21.0,12.9,71,30.07,10.0,WNW,6.9,-,N/A,,Mostly Cloudy,300,2012-12-22 16:54:00
11:54 AM,23.0,12.9,65,30.04,10.0,West,4.6,-,N/A,,Clear,280,2012-12-22 17:54:00
12:54 PM,25.0,12.9,60,30.00,10.0,SSW,3.5,-,N/A,,Scattered Clouds,210,2012-12-22 18:54:00
1:54 PM,26.1,14.0,60,29.98,10.0,Calm,Calm,-,N/A,,Overcast,0,2012-12-22 19:54:00
2:54 PM,28.0,15.1,58,29.95,10.0,Calm,Calm,-,N/A,,Overcast,0,2012-12-22 20:54:00
3:54 PM,28.0,17.1,63,29.93,10.0,Calm,Calm,-,N/A,,Overcast,0,2012-12-22 21:54:00
4:54 PM,26.1,18.0,71,29.92,10.0,Calm,Calm,-,N/A,,Mostly Cloudy,0,2012-12-22 22:54:00
5:54 PM,19.9,15.1,81,29.93,10.0,Calm,Calm,-,N/A,,Clear,0,2012-12-22 23:54:00
6:54 PM,17.1,12.9,84,29.94,10.0,Calm,Calm,-,N/A,,Scattered Clouds,0,2012-12-23 00:54:00
7:54 PM,12.9,10.0,88,29.93,10.0,Calm,Calm,-,N/A,,Clear,0,2012-12-23 01:54:00
8:54 PM,12.0,9.0,88,29.92,10.0,Calm,Calm,-,N/A,,Clear,0,2012-12-23 02:54:00
9:54 PM,16.0,10.9,81,29.92,10.0,WNW,4.6,-,N/A,,Scattered Clouds,300,2012-12-23 03:54:00
10:04 PM,19.4,14.0,80,29.84,10.0,WNW,5.8,-,N/A,,Mostly Cloudy,300,2012-12-23 04:04:00
10:54 PM,21.9,17.1,82,29.91,10.0,NW,6.9,-,N/A,,Overcast,310,2012-12-23 04:54:00
11:30 PM,24.8,19.4,80,29.85,10.0,NNW,15.0,21.9,N/A,,Overcast,330,2012-12-23 05:30:00
11:54 PM,24.1,19.0,81,29.91,10.0,NNW,13.8,19.6,N/A,,Overcast,340,2012-12-23 05:54:00